Weather History for LLET - February, 2013

Change the Weather History Date:

Thursday, February 28, 2013

  Actual Average Record
Temperature  
Mean Temperature 70 °F -  
Max Temperature 81 °F 77 °F 89 °F (2004)
Min Temperature 59 °F 58 °F 46 °F (1997)
Cooling Degree Days 5    
Growing Degree Days 20 (Base 50)    
Moisture  
Dew Point 37 °F    
Average Humidity 27    
Maximum Humidity 51    
Minimum Humidity 11    
Precipitation  
Precipitation 0.00 in 0.01 in - ()
Sea Level Pressure  
Sea Level Pressure 30.01 in    
Wind  
Wind Speed 8 mph ()    
Max Wind Speed 20 mph    
Max Gust Speed -    
Visibility 10.7 miles    
Events      
Averages and records for this station are not official NWS values.
T = Trace of Precipitation, MM = Missing Value Source: Averaged Metar Reports

Daily Weather History Graph

Daily Weather History Graph

Search for Another Location

Airport or City:

Trip Planner

Search our weather history database for the weather conditions in past years. The results will help you decide how hot, cold, wet, or windy it might be!

Date:

Astronomy

Feb. 28, 2013 Rise Set
Actual Time 6:06 AM IST 5:38 PM IST
Civil Twilight 5:43 AM IST 6:02 PM IST
Nautical Twilight 5:15 AM IST 6:30 PM IST
Astronomical Twilight 4:47 AM IST 6:58 PM IST
Moon 8:24 PM IST (2/28) 7:20 AM IST (2/28)
Length of Visible Light 12h 19m
Length of Day
11h 31m
Waning Gibbous, 93% of the Moon is Illuminated
Feb 28
Waning Gibbous
Mar 4
Last Quarter
Mar 11
New
Mar 19
First Quarter
Mar 27
Full

Hourly Weather History & Observations

Time (IST) Temp. Dew Point Humidity Pressure Visibility Wind Dir Wind Speed Gust Speed Precip Events Conditions
2:00 AM 65 °F 37 °F 24% 29.99 in - NNE 3.5 mph - -  
5:50 AM 59.0 °F 41.0 °F 51% 30.01 in - NNE 5.8 mph - N/A   Clear
6:50 AM 60.8 °F 37.4 °F 42% 30.04 in - North 11.5 mph - N/A   Clear
7:50 AM 64.4 °F 39.2 °F 40% 30.04 in - NE 9.2 mph - N/A   Clear
8:00 AM 65 °F 38 °F 25% 30.04 in 16 mi NE 3.5 mph - -   Clear
8:50 AM 66.2 °F 37.4 °F 35% 30.06 in - NNE 12.7 mph - N/A   Clear
9:50 AM 69.8 °F 37.4 °F 31% 30.06 in - NE 12.7 mph - N/A   Clear
10:50 AM 71.6 °F 39.2 °F 31% 30.04 in - NE 12.7 mph - N/A   Clear
11:50 AM 77.0 °F 37.4 °F 24% 30.04 in - NE 13.8 mph - N/A   Clear
12:50 PM 78.8 °F 35.6 °F 21% 30.01 in - NNE 19.6 mph - N/A   Clear
1:50 PM 80.6 °F 35.6 °F 20% 29.98 in - NNE 13.8 mph - N/A   Clear
2:00 PM 81 °F 36 °F 11% 29.97 in 16 mi NE 6.9 mph - -   Clear
2:50 PM 80.6 °F 35.6 °F 20% 29.98 in - NE 11.5 mph - N/A   Clear
3:50 PM 80.6 °F 35.6 °F 20% 29.95 in 6.2 mi NE 15.0 mph - N/A   Partly Cloudy
4:50 PM 80.6 °F 33.8 °F 18% 29.98 in - North 12.7 mph - N/A   Clear
5:50 PM 77.0 °F 33.8 °F 21% 29.98 in 6.2 mi North 10.4 mph - N/A   Partly Cloudy
6:50 PM 75.2 °F 35.6 °F 24% 29.98 in - NE 10.4 mph - N/A   Clear
7:50 PM 71.6 °F 37.4 °F 29% 30.01 in - NNE 9.2 mph - N/A   Clear
8:00 PM 71 °F 38 °F 19% 30.01 in 9 mi NNE 4.6 mph - -   Clear
8:50 PM 71.6 °F 39.2 °F 31% 30.04 in - North 10.4 mph - N/A   Clear
9:50 PM 69.8 °F 42.8 °F 38% 30.04 in - North 11.5 mph - N/A   Clear